Milford Square, PA

4:47 PM EST on February 06, 2016 (GMT -0500)
Quakertown

Weather History for KUKT - February, 2014

Change the Weather History Date:

Monday, February 10, 2014

  Actual Average (KABE) Record (KABE)
Temperature  
Mean Temperature 16 °F 30 °F  
Max Temperature 26 °F 39 °F 57 °F (1990)
Min Temperature 3 °F 21 °F -11 °F (1934)
Degree Days  
Heating Degree Days 50 35  
Month to date heating degree days 360  
Since 1 July heating degree days 3710  
Cooling Degree Days 0 0  
Month to date cooling degree days 0  
Year to date cooling degree days 0  
Moisture  
Dew Point 8 °F    
Average Humidity 62    
Maximum Humidity 93    
Minimum Humidity 40    
Precipitation  
Precipitation 0.01 in 0.09 in 1.40 in (2010)
Month to date precipitation 0.98  
Year to date precipitation 4.01  
Snow  
Snow 0.00 in 0.40 in 17.30 in (2010)
Month to date snowfall 4.1  
Since 1 July snowfall 20.0  
Snow Depth -    
Sea Level Pressure  
Sea Level Pressure 30.16 in    
Wind  
Wind Speed 4 mph (West)    
Max Wind Speed 10 mph    
Max Gust Speed 16 mph    
Visibility 10 miles    
Events      
T = Trace of Precipitation, MM = Missing Value Source: NWS Daily Summary

Daily Weather History Graph

Daily Weather History Graph

Search for Another Location

Airport or City:

Trip Planner

Search our weather history database for the weather conditions in past years. The results will help you decide how hot, cold, wet, or windy it might be!

Date:

Astronomy

Feb. 10, 2014 Rise Set
Actual Time 7:01 AM EST 5:30 PM EST
Civil Twilight 6:33 AM EST 5:59 PM EST
Nautical Twilight 6:00 AM EST 6:31 PM EST
Astronomical Twilight 5:29 AM EST 7:02 PM EST
Moon 1:57 PM EST (2/10) 3:52 AM EST (2/10)
Length of Visible Light 11h 26m
Length of Day
10h 29m
Waxing Gibbous, 84% of the Moon is Illuminated
Feb 10
Waxing Gibbous
Feb 14
Full
Feb 22
Last Quarter
Mar 1
New
Mar 8
First Quarter

Hourly Weather History & Observations

Time (EST) Temp. Windchill Dew Point Humidity Pressure Visibility Wind Dir Wind Speed Gust Speed Precip Events Conditions
12:15 AM 19.4 °F - 17.6 °F 93% 30.02 in 5.0 mi Calm Calm - N/A   Mostly Cloudy
12:35 AM 19.4 °F - 17.6 °F 93% 30.02 in 5.0 mi Calm Calm - N/A   Overcast
12:55 AM 19.4 °F 14.3 °F 17.6 °F 93% 30.02 in 6.0 mi SW 3.5 mph - N/A   Overcast
1:15 AM 23.0 °F 18.4 °F 19.4 °F 86% 30.02 in 9.0 mi WSW 3.5 mph - 0.01 in   Overcast
1:35 AM 24.8 °F 17.9 °F 19.4 °F 80% 30.03 in 10.0 mi West 5.8 mph - 0.01 in   Overcast
1:55 AM 24.8 °F 16.9 °F 17.6 °F 74% 30.03 in 10.0 mi West 6.9 mph - 0.01 in   Overcast
2:15 AM 23.0 °F 18.4 °F 17.6 °F 80% 30.03 in 10.0 mi West 3.5 mph - N/A   Scattered Clouds
2:35 AM 23.0 °F 15.8 °F 17.6 °F 80% 30.03 in 10.0 mi West 5.8 mph - N/A   Mostly Cloudy
2:55 AM 23.0 °F 17.0 °F 15.8 °F 74% 30.05 in 10.0 mi West 4.6 mph - N/A   Mostly Cloudy
3:15 AM 23.0 °F 15.8 °F 15.8 °F 74% 30.05 in 10.0 mi West 5.8 mph - N/A   Mostly Cloudy
3:35 AM 23.0 °F 15.8 °F 12.2 °F 63% 30.06 in 10.0 mi West 5.8 mph - N/A   Mostly Cloudy
3:55 AM 21.2 °F 14.9 °F 10.4 °F 63% 30.06 in 10.0 mi West 4.6 mph - N/A   Partly Cloudy
4:15 AM 21.2 °F 13.6 °F 10.4 °F 63% 30.06 in 10.0 mi West 5.8 mph - N/A   Mostly Cloudy
4:35 AM 21.2 °F 16.4 °F 10.4 °F 63% 30.06 in 10.0 mi West 3.5 mph - N/A   Mostly Cloudy
4:55 AM 19.4 °F 10.4 °F 10.4 °F 68% 30.08 in 10.0 mi WSW 6.9 mph - N/A   Scattered Clouds
5:15 AM 19.4 °F 14.3 °F 8.6 °F 63% 30.10 in 10.0 mi WSW 3.5 mph - N/A   Mostly Cloudy
5:35 AM 19.4 °F 11.5 °F 8.6 °F 63% 30.10 in 8.0 mi WNW 5.8 mph - N/A   Scattered Clouds
5:55 AM 17.6 °F - 8.6 °F 68% 30.12 in 10.0 mi Calm Calm - N/A   Clear
6:15 AM 14.0 °F 8.2 °F 8.6 °F 79% 30.13 in 9.0 mi SW 3.5 mph - N/A   Clear
6:35 AM 15.8 °F 10.2 °F 6.8 °F 68% 30.13 in 10.0 mi West 3.5 mph - N/A   Clear
6:55 AM 15.8 °F - 6.8 °F 68% 30.14 in 10.0 mi Calm Calm - N/A   Clear
7:15 AM 15.8 °F 10.2 °F 6.8 °F 68% 30.14 in 10.0 mi West 3.5 mph - N/A   Clear
7:35 AM 14.0 °F - 6.8 °F 73% 30.16 in 10.0 mi Calm Calm - N/A   Clear
7:55 AM 14.0 °F - 6.8 °F 73% 30.17 in 10.0 mi Calm Calm - N/A   Clear
8:15 AM 15.8 °F 10.2 °F 6.8 °F 68% 30.18 in 10.0 mi WSW 3.5 mph - N/A   Clear
8:35 AM 19.4 °F 12.8 °F 8.6 °F 63% 30.19 in 10.0 mi WSW 4.6 mph - N/A   Clear
8:55 AM 19.4 °F 10.4 °F 8.6 °F 63% 30.19 in 10.0 mi WSW 6.9 mph - N/A   Clear
9:15 AM 19.4 °F 10.4 °F 8.6 °F 63% 30.19 in 7.0 mi West 6.9 mph - N/A   Clear
9:35 AM 21.2 °F 10.9 °F 6.8 °F 54% 30.19 in 10.0 mi West 9.2 mph - N/A   Clear
9:55 AM 21.2 °F 10.1 °F 8.6 °F 58% 30.18 in 10.0 mi West 10.4 mph - N/A   Clear
10:15 AM 21.2 °F 10.9 °F 8.6 °F 58% 30.19 in 10.0 mi West 9.2 mph - N/A   Clear
10:35 AM 23.0 °F 12.4 °F 8.6 °F 54% 30.19 in 10.0 mi West 10.4 mph - N/A   Clear
10:55 AM 23.0 °F 14.7 °F 8.6 °F 54% 30.18 in 10.0 mi West 6.9 mph - N/A   Clear
11:15 AM 23.0 °F 13.9 °F 8.6 °F 54% 30.18 in 10.0 mi West 8.1 mph - N/A   Clear
11:35 AM 23.0 °F 13.9 °F 6.8 °F 50% 30.18 in 10.0 mi West 8.1 mph - N/A   Clear
11:55 AM 23.0 °F 12.4 °F 6.8 °F 50% 30.17 in 10.0 mi West 10.4 mph 16.1 mph N/A   Clear
12:15 PM 24.8 °F 15.3 °F 6.8 °F 46% 30.17 in 10.0 mi WSW 9.2 mph - N/A   Clear
12:35 PM 24.8 °F 16.1 °F 6.8 °F 46% 30.16 in 10.0 mi West 8.1 mph - N/A   Clear
12:55 PM 24.8 °F 15.3 °F 8.6 °F 50% 30.16 in 10.0 mi WSW 9.2 mph - N/A   Clear
1:15 PM 24.8 °F 17.9 °F 6.8 °F 46% 30.15 in 10.0 mi West 5.8 mph - N/A   Clear
1:35 PM 26.6 °F 17.5 °F 6.8 °F 43% 30.15 in 10.0 mi West 9.2 mph - N/A   Clear
1:55 PM 26.6 °F 17.5 °F 6.8 °F 43% 30.14 in 10.0 mi West 9.2 mph - N/A   Clear
2:15 PM 26.6 °F 17.5 °F 6.8 °F 43% 30.14 in 10.0 mi West 9.2 mph - N/A   Clear
2:35 PM 26.6 °F 17.5 °F 6.8 °F 43% 30.14 in 10.0 mi WSW 9.2 mph - N/A   Clear
2:55 PM 26.6 °F 18.2 °F 6.8 °F 43% 30.14 in 10.0 mi West 8.1 mph - N/A   Clear
3:15 PM 26.6 °F 16.8 °F 6.8 °F 43% 30.15 in 10.0 mi West 10.4 mph - N/A   Clear
3:35 PM 24.8 °F 17.9 °F 6.8 °F 46% 30.15 in 10.0 mi West 5.8 mph - N/A   Clear
3:55 PM 26.6 °F 18.2 °F 5.0 °F 40% 30.16 in 10.0 mi West 8.1 mph - N/A   Clear
4:15 PM 26.6 °F 18.2 °F 5.0 °F 40% 30.16 in 10.0 mi WSW 8.1 mph - N/A   Clear
4:35 PM 24.8 °F 14.6 °F 5.0 °F 43% 30.17 in 10.0 mi West 10.4 mph - N/A   Clear
4:55 PM 24.8 °F 16.1 °F 5.0 °F 43% 30.17 in 10.0 mi WSW 8.1 mph - N/A   Partly Cloudy
5:15 PM 24.8 °F 19.1 °F 6.8 °F 46% 30.18 in 10.0 mi West 4.6 mph - N/A   Partly Cloudy
5:35 PM 23.0 °F 17.0 °F 5.0 °F 46% 30.19 in 10.0 mi WSW 4.6 mph - N/A   Clear
5:55 PM 23.0 °F - 5.0 °F 46% 30.19 in 10.0 mi Calm Calm - N/A   Clear
6:15 PM 23.0 °F - 5.0 °F 46% 30.21 in 10.0 mi Calm Calm - N/A   Clear
6:35 PM 19.4 °F - 5.0 °F 54% 30.21 in 10.0 mi Calm Calm - N/A   Clear
6:55 PM 19.4 °F - 5.0 °F 54% 30.22 in 10.0 mi Calm Calm - N/A   Clear
7:15 PM 19.4 °F - 5.0 °F 54% 30.22 in 10.0 mi Calm Calm - N/A   Clear
7:35 PM 17.6 °F - 5.0 °F 58% 30.23 in 10.0 mi Calm Calm - N/A   Clear
7:55 PM 19.4 °F - 5.0 °F 54% 30.23 in 10.0 mi Calm Calm - N/A   Clear
8:15 PM 15.8 °F - 5.0 °F 62% 30.23 in 10.0 mi Calm Calm - N/A   Clear
8:35 PM 14.0 °F - 5.0 °F 67% 30.24 in 10.0 mi Calm Calm - N/A   Clear
8:55 PM 12.2 °F - 5.0 °F 73% 30.25 in 10.0 mi Calm Calm - N/A   Clear
9:15 PM 10.4 °F - 3.2 °F 73% 30.25 in 10.0 mi Calm Calm - N/A   Clear
9:35 PM 8.6 °F - 3.2 °F 79% 30.26 in 10.0 mi Calm Calm - N/A   Clear
9:55 PM 8.6 °F - 3.2 °F 79% 30.26 in 10.0 mi Calm Calm - N/A   Clear
10:15 PM 6.8 °F - 1.4 °F 79% 30.26 in 10.0 mi Calm Calm - N/A   Clear
10:35 PM 6.8 °F - 1.4 °F 79% 30.26 in 10.0 mi Calm Calm - N/A   Clear
10:55 PM 6.8 °F - 1.4 °F 79% 30.27 in 10.0 mi Calm Calm - N/A   Clear
11:15 PM 5.0 °F - -0.4 °F 78% 30.27 in 10.0 mi Calm Calm - N/A   Clear
11:35 PM 5.0 °F - -0.4 °F 78% 30.28 in 9.0 mi Calm Calm - N/A   Clear
11:55 PM 3.2 °F - -0.4 °F 85% 30.28 in 10.0 mi Calm Calm - N/A   Clear